THORAD DELTA 1 DEB, 8158

Orbit data source: Space-Track

THORAD DELTA 1 DEB, 8158 is space debris in SSO originally from a launch on Fri, 15 Nov 1974 UTC launched from the Air Force Western Test Range (AFWTR). Debris objects in space refer to the collection of defunct objects orbiting the Earth. Examples of debris include non-operational satellites, rocket bodies, and fragments generated from explosions, collisions, or faulty payload assembly.

Loading next visibility...
Identifier
8158, 1974-089Y
Orbit
SSO
Country
Flag of USUS
Related business
Manufacturer
Unknown
Mission
Spacecraft
Bus & Motor
Unknown
Mass
Unknown
Launch date (UTC)
1974-11-15 (52 years ago)
Launch vehicle
Unknown
Launch site
Air Force Western Test Range (AFWTR)
Object type
Payload
Rocket body
Debris
Shape & HBR
Unknown shape, 0.1 m
Radar Cross Section
Small (<0.1 m²)

Expand to show TLE details & history
Last TLE update: 12 hours ago

TLE from 12 hours ago
0 THORAD DELTA 1 DEB
1 08158U 74089Y   26144.68264741 -.00000035  00000-0  54751-4 0  9990
2 08158 101.4069 215.0584 0061504 262.6082 252.9722 12.61675048370764
Epoch: 2026-05-24T16:23Z
TLE epoch observation values (Epoch: 2026-05-24T16:23:00.736Z)
Latitude
24.58968°
Longitude
-87.70449°
Altitude
1,433.047 km
Speed
7.14 km/s
True Right ascension
02h 41m 19s
True Declination
24° 28' 16"
Sunlit
Object was in daylight at epoch
Visualization orbit readout
Latitude
Unknown
Longitude
Unknown
Altitude
Unknown
Speed
Unknown
Apparent Right ascension
Unknown
Apparent Declination
Unknown
Sunlit
N/A
Visualization observer readout
Local Sidereal Time
13:55:00
Azimuth
Unknown
Elevation
Unknown
Doppler factor
Unknown
Orbital elements
Apogee altitude
1,461.472 km
Perigee altitude
1,365.628 km
Semi-major axis
7,791.687 km
Eccentricity
0.00615
Inclination
101.4069°
RAAN
215.0584°
Arg. of periapsis
262.6082°
True anomaly
252.29984°
Mean anomaly
252.9722°
Eccentric anomaly
252.63587°
Mean motion
3.1557 °/min
Orbital period
114.08 mins
BSTAR
0.000054751
Loading maneuver chart data...
Computing Atmospheric mass density...

Documentation

Showing up to 5 results
|